Year,Month,Day,Hour,Minute,Value (Times are PST for windgust in km/hr)
2021,03,05,07,54,4.80
2021,03,05,07,55,30.60
2021,03,05,07,56,25.70
2021,03,05,07,57,35.40
2021,03,05,07,58,27.40
2021,03,05,07,59,72.40
2021,03,05,08,00,90.10
2021,03,05,08,01,53.10
2021,03,05,08,02,64.40
2021,03,05,08,03,112.60
2021,03,05,08,04,56.30
2021,03,05,08,05,22.50
2021,03,05,08,06,30.60
2021,03,05,08,07,24.20
2021,03,05,08,08,17.70
2021,03,05,08,09,22.50
2021,03,05,08,10,25.70
2021,03,05,08,11,29.00
2021,03,05,08,12,25.70
2021,03,05,08,13,20.90
2021,03,05,08,14,30.60
2021,03,05,08,15,33.80
2021,03,05,08,16,27.40
2021,03,05,08,17,62.70
2021,03,05,08,18,33.80
2021,03,05,08,19,32.20
2021,03,05,08,20,29.00
2021,03,05,08,21,32.20
2021,03,05,08,22,38.60
2021,03,05,08,23,33.80
2021,03,05,08,24,32.20
2021,03,05,08,25,32.20
2021,03,05,08,26,35.40
2021,03,05,08,27,29.00
2021,03,05,08,28,22.50
2021,03,05,08,29,29.00
2021,03,05,08,30,25.70
2021,03,05,08,31,27.40
2021,03,05,08,32,33.80
2021,03,05,08,33,30.60
2021,03,05,08,34,27.40
2021,03,05,08,35,24.20
2021,03,05,08,36,29.00
2021,03,05,08,37,25.70
2021,03,05,08,38,22.50
2021,03,05,08,39,27.40
2021,03,05,08,40,25.70
2021,03,05,08,41,25.70
2021,03,05,08,42,22.50
2021,03,05,08,43,27.40
2021,03,05,08,44,24.20
2021,03,05,08,45,25.70
2021,03,05,08,46,35.40
2021,03,05,08,47,32.20
2021,03,05,08,48,29.00
2021,03,05,08,49,30.60
2021,03,05,08,50,43.50
2021,03,05,08,51,29.00
2021,03,05,08,52,19.30
2021,03,05,08,53,24.20
2021,03,05,08,54,6.40
2021,03,05,08,55,8.10
2021,03,05,08,56,6.40
2021,03,05,08,57,9.60
2021,03,05,08,58,9.60
2021,03,05,08,59,14.50
2021,03,05,09,00,19.30
2021,03,05,09,01,25.70
2021,03,05,09,02,30.60
2021,03,05,09,03,25.70
2021,03,05,09,04,29.00
2021,03,05,09,05,33.80
2021,03,05,09,06,27.40
2021,03,05,09,07,29.00
2021,03,05,09,08,32.20
2021,03,05,09,09,20.90
2021,03,05,09,10,25.70
2021,03,05,09,11,27.40
2021,03,05,09,12,30.60
2021,03,05,09,13,29.00
2021,03,05,09,14,25.70
2021,03,05,09,15,24.20
2021,03,05,09,16,25.70
2021,03,05,09,17,29.00
2021,03,05,09,18,25.70
2021,03,05,09,19,27.40
2021,03,05,09,20,37.00
2021,03,05,09,21,25.70
2021,03,05,09,22,35.40
2021,03,05,09,23,30.60
2021,03,05,09,24,27.40
2021,03,05,09,25,32.20
2021,03,05,09,26,20.90
2021,03,05,09,27,27.40
2021,03,05,09,28,19.30
2021,03,05,09,29,30.60
2021,03,05,09,30,24.20
2021,03,05,09,31,22.50
2021,03,05,09,32,24.20
2021,03,05,09,33,16.10
2021,03,05,09,34,24.20
2021,03,05,09,35,20.90
2021,03,05,09,36,20.90
2021,03,05,09,37,20.90
2021,03,05,09,38,16.10
2021,03,05,09,39,17.70
2021,03,05,09,40,14.50
2021,03,05,09,41,11.30
2021,03,05,09,42,17.70
2021,03,05,09,43,16.10
2021,03,05,09,44,16.10
2021,03,05,09,45,24.20
2021,03,05,09,46,20.90
2021,03,05,09,47,20.90
2021,03,05,09,48,22.50
2021,03,05,09,49,17.70
2021,03,05,09,50,16.10
2021,03,05,09,51,16.10
2021,03,05,09,52,46.70
2021,03,05,09,53,22.50
2021,03,05,09,54,17.70
2021,03,05,09,55,19.30
2021,03,05,09,56,17.70
2021,03,05,09,57,41.80
2021,03,05,09,58,25.70
2021,03,05,09,59,33.80
2021,03,05,10,00,22.50
2021,03,05,10,01,22.50
2021,03,05,10,02,22.50
2021,03,05,10,03,17.70
2021,03,05,10,04,19.30
2021,03,05,10,05,17.70
2021,03,05,10,06,27.40
2021,03,05,10,07,19.30
2021,03,05,10,08,19.30
2021,03,05,10,09,22.50
2021,03,05,10,10,19.30
2021,03,05,10,11,27.40
2021,03,05,10,12,32.20
2021,03,05,10,13,24.20
2021,03,05,10,14,24.20
2021,03,05,10,15,30.60
2021,03,05,10,16,19.30
2021,03,05,10,17,37.00
2021,03,05,10,18,27.40
2021,03,05,10,19,30.60
2021,03,05,10,20,27.40
2021,03,05,10,21,30.60
2021,03,05,10,22,29.00
2021,03,05,10,23,25.70
2021,03,05,10,24,20.90
2021,03,05,10,25,25.70
2021,03,05,10,26,22.50
2021,03,05,10,27,22.50
2021,03,05,10,28,16.10
2021,03,05,10,29,30.60
2021,03,05,10,30,24.20
2021,03,05,10,31,22.50
2021,03,05,10,32,20.90
2021,03,05,10,33,24.20
2021,03,05,10,34,20.90
2021,03,05,10,35,30.60
2021,03,05,10,36,11.30
2021,03,05,10,37,17.70
2021,03,05,10,38,25.70
2021,03,05,10,39,38.60
2021,03,05,10,40,46.70
2021,03,05,10,41,22.50
2021,03,05,10,42,30.60
2021,03,05,10,43,43.50
2021,03,05,10,44,20.90
2021,03,05,10,45,20.90
2021,03,05,10,46,25.70
2021,03,05,10,47,24.20
2021,03,05,10,48,30.60
2021,03,05,10,49,30.60
2021,03,05,10,50,37.00
2021,03,05,10,51,25.70
2021,03,05,10,52,25.70
2021,03,05,10,53,22.50
2021,03,05,10,54,25.70
2021,03,05,10,55,32.20
2021,03,05,10,56,46.70
2021,03,05,10,57,33.80
2021,03,05,10,58,27.40
2021,03,05,10,59,25.70
2021,03,05,11,00,22.50
2021,03,05,11,01,37.00
2021,03,05,11,02,30.60
2021,03,05,11,03,37.00
2021,03,05,11,04,33.80
2021,03,05,11,05,27.40
2021,03,05,11,06,25.70
2021,03,05,11,07,32.20
2021,03,05,11,08,25.70
2021,03,05,11,09,27.40
2021,03,05,11,10,41.80
2021,03,05,11,11,37.00
2021,03,05,11,12,24.20
2021,03,05,11,13,27.40
2021,03,05,11,14,29.00
2021,03,05,11,15,29.00
2021,03,05,11,16,29.00
2021,03,05,11,17,24.20
2021,03,05,11,18,40.20
2021,03,05,11,19,22.50
2021,03,05,11,20,27.40
2021,03,05,11,21,17.70
2021,03,05,11,22,25.70
2021,03,05,11,23,25.70
2021,03,05,11,24,27.40
2021,03,05,11,25,24.20
2021,03,05,11,26,27.40
2021,03,05,11,27,32.20
2021,03,05,11,28,20.90
2021,03,05,11,29,51.50
2021,03,05,11,30,54.70
2021,03,05,11,31,19.30
2021,03,05,11,32,17.70
2021,03,05,11,33,24.20
2021,03,05,11,34,27.40
2021,03,05,11,35,20.90
2021,03,05,11,36,27.40
2021,03,05,11,37,19.30
2021,03,05,11,38,19.30
2021,03,05,11,39,22.50
2021,03,05,11,40,14.50
2021,03,05,11,41,29.00
2021,03,05,11,42,53.10
2021,03,05,11,43,61.20
2021,03,05,11,44,64.40
2021,03,05,11,45,41.80
2021,03,05,11,46,27.40
2021,03,05,11,47,27.40
2021,03,05,11,48,30.60
2021,03,05,11,49,22.50
2021,03,05,11,50,25.70
2021,03,05,11,51,78.80
2021,03,05,11,52,78.80
2021,03,05,11,53,27.40
2021,03,05,11,54,24.20
2021,03,05,11,55,25.70
2021,03,05,11,56,27.40
2021,03,05,11,57,24.20
2021,03,05,11,58,24.20
2021,03,05,11,59,17.70
2021,03,05,12,00,22.50
2021,03,05,12,01,25.70
2021,03,05,12,02,16.10
2021,03,05,12,03,22.50
2021,03,05,12,04,30.60
2021,03,05,12,05,27.40
2021,03,05,12,06,32.20
2021,03,05,12,07,53.10
2021,03,05,12,08,35.40
2021,03,05,12,09,43.50
2021,03,05,12,10,24.20
2021,03,05,12,11,56.30
2021,03,05,12,12,24.20
2021,03,05,12,13,29.00
2021,03,05,12,14,30.60
2021,03,05,12,15,22.50
2021,03,05,12,16,51.50
2021,03,05,12,17,22.50
2021,03,05,12,18,24.20
2021,03,05,12,19,19.30
2021,03,05,12,20,24.20
2021,03,05,12,21,22.50
2021,03,05,12,22,11.30
2021,03,05,12,23,32.20
2021,03,05,12,24,19.30
2021,03,05,12,25,16.10
2021,03,05,12,26,9.60
2021,03,05,12,27,14.50
2021,03,05,12,28,20.90
2021,03,05,12,29,37.00
2021,03,05,12,30,19.30
2021,03,05,12,31,16.10
2021,03,05,12,32,11.30
2021,03,05,12,33,17.70
2021,03,05,12,34,16.10
2021,03,05,12,35,11.30
2021,03,05,12,36,17.70
2021,03,05,12,37,22.50
2021,03,05,12,38,48.30
2021,03,05,12,39,24.20
2021,03,05,12,40,17.70
2021,03,05,12,41,17.70
2021,03,05,12,42,24.20
2021,03,05,12,43,24.20
2021,03,05,12,44,20.90
2021,03,05,12,45,22.50
2021,03,05,12,46,20.90
2021,03,05,12,47,16.10
2021,03,05,12,48,19.30
2021,03,05,12,49,59.50
2021,03,05,12,50,41.80
2021,03,05,12,51,17.70
2021,03,05,12,52,32.20
2021,03,05,12,53,30.60
2021,03,05,12,54,35.40
2021,03,05,12,55,49.90
2021,03,05,12,56,24.20
2021,03,05,12,57,25.70
2021,03,05,12,58,51.50
2021,03,05,12,59,29.00
2021,03,05,13,00,41.80
2021,03,05,13,01,20.90
2021,03,05,13,02,20.90
2021,03,05,13,03,16.10
2021,03,05,13,04,29.00
2021,03,05,13,05,37.00
2021,03,05,13,06,40.20
2021,03,05,13,07,27.40
2021,03,05,13,08,17.70
2021,03,05,13,09,22.50
2021,03,05,13,10,30.60
2021,03,05,13,11,27.40
2021,03,05,13,12,56.30
2021,03,05,13,13,38.60
2021,03,05,13,14,46.70
2021,03,05,13,15,22.50
2021,03,05,13,16,22.50
2021,03,05,13,17,17.70
2021,03,05,13,18,24.20
2021,03,05,13,19,25.70
2021,03,05,13,20,25.70
2021,03,05,13,21,38.60
2021,03,05,13,22,19.30
2021,03,05,13,23,29.00
2021,03,05,13,24,30.60
2021,03,05,13,25,57.90
2021,03,05,13,26,51.50
2021,03,05,13,27,46.70
2021,03,05,13,28,40.20
2021,03,05,13,29,41.80
2021,03,05,13,30,37.00
2021,03,05,13,31,43.50
2021,03,05,13,32,53.10
2021,03,05,13,33,25.70
2021,03,05,13,34,29.00
2021,03,05,13,35,41.80
2021,03,05,13,36,53.10
2021,03,05,13,37,53.10
2021,03,05,13,38,53.10
2021,03,05,13,39,46.70
2021,03,05,13,40,49.90
2021,03,05,13,41,38.60
2021,03,05,13,42,45.10
2021,03,05,13,43,57.90
2021,03,05,13,44,27.40
2021,03,05,13,45,29.00
2021,03,05,13,46,32.20
2021,03,05,13,47,33.80
2021,03,05,13,48,64.40
2021,03,05,13,49,53.10
2021,03,05,13,50,64.40
2021,03,05,13,51,75.60
2021,03,05,13,52,41.80
2021,03,05,13,53,46.70
2021,03,05,13,54,83.70
2021,03,05,13,55,107.80
2021,03,05,13,56,74.00
2021,03,05,13,57,74.00
2021,03,05,13,58,70.80
2021,03,05,13,59,67.60
2021,03,05,14,00,69.20
2021,03,05,14,01,53.10
2021,03,05,14,02,38.60
2021,03,05,14,03,70.80
2021,03,05,14,04,67.60
2021,03,05,14,05,72.40
2021,03,05,14,06,77.30
2021,03,05,14,07,69.20
2021,03,05,14,08,112.60
2021,03,05,14,09,78.80
2021,03,05,14,10,109.40
2021,03,05,14,11,69.20
2021,03,05,14,12,62.70
2021,03,05,14,13,72.40
2021,03,05,14,14,54.70
2021,03,05,14,15,75.60
2021,03,05,14,16,62.70
2021,03,05,14,17,67.60
2021,03,05,14,18,83.70
2021,03,05,14,19,106.20
2021,03,05,14,20,111.10
2021,03,05,14,21,104.60
2021,03,05,14,22,101.40
2021,03,05,14,23,69.20
2021,03,05,14,24,53.10
2021,03,05,14,25,40.20
2021,03,05,14,26,48.30
2021,03,05,14,27,48.30
2021,03,05,14,28,41.80
2021,03,05,14,29,53.10
2021,03,05,14,30,40.20
2021,03,05,14,31,37.00
2021,03,05,14,32,17.70
2021,03,05,14,33,22.50
2021,03,05,14,34,20.90
2021,03,05,14,35,32.20
2021,03,05,14,36,37.00
2021,03,05,14,37,40.20
2021,03,05,14,38,38.60
2021,03,05,14,39,32.20
2021,03,05,14,40,62.70
2021,03,05,14,41,67.60
2021,03,05,14,42,74.00
2021,03,05,14,43,45.10
2021,03,05,14,44,67.60
2021,03,05,14,45,51.50
2021,03,05,14,46,43.50
2021,03,05,14,47,99.80
2021,03,05,14,48,106.20
2021,03,05,14,49,93.30
2021,03,05,14,50,120.70
2021,03,05,14,51,133.60
2021,03,05,14,52,127.20
2021,03,05,14,53,123.90
2021,03,05,14,54,135.20
2021,03,05,14,55,112.60
2021,03,05,14,56,109.40
2021,03,05,14,57,133.60
2021,03,05,14,58,138.40
2021,03,05,14,59,132.00
2021,03,05,15,00,75.60
2021,03,05,15,01,49.90
2021,03,05,15,02,103.00
2021,03,05,15,03,64.40
2021,03,05,15,04,96.60
2021,03,05,15,05,82.10
2021,03,05,15,06,35.40
2021,03,05,15,07,38.60
2021,03,05,15,08,19.30
2021,03,05,15,09,41.80
2021,03,05,15,10,82.10
2021,03,05,15,11,57.90
2021,03,05,15,12,46.70
2021,03,05,15,13,46.70
2021,03,05,15,14,27.40
2021,03,05,15,15,22.50
2021,03,05,15,16,53.10
2021,03,05,15,17,66.00
2021,03,05,15,18,128.70
2021,03,05,15,19,27.40
2021,03,05,15,20,53.10
2021,03,05,15,21,37.00
2021,03,05,15,22,85.30
2021,03,05,15,23,86.90
2021,03,05,15,24,77.30
2021,03,05,15,25,80.50
2021,03,05,15,26,33.80
2021,03,05,15,27,32.20
2021,03,05,15,28,27.40
2021,03,05,15,29,16.10
2021,03,05,15,30,20.90
2021,03,05,15,31,22.50
2021,03,05,15,32,19.30
2021,03,05,15,33,20.90
2021,03,05,15,34,14.50
2021,03,05,15,35,19.30
2021,03,05,15,36,20.90
2021,03,05,15,37,20.90
2021,03,05,15,38,11.30
2021,03,05,15,39,17.70
2021,03,05,15,40,22.50
2021,03,05,15,41,17.70
2021,03,05,15,45,143.20
2021,03,05,15,46,104.60
2021,03,05,15,47,90.10
2021,03,05,15,48,74.00
2021,03,05,15,49,66.00
2021,03,05,15,50,119.10
2021,03,05,15,51,93.30
2021,03,05,15,52,14.50
2021,03,05,15,53,16.10
2021,03,05,15,54,14.50
2021,03,05,15,55,19.30
2021,03,05,15,56,14.50
2021,03,05,15,57,11.30
2021,03,05,15,58,6.40
2021,03,05,15,59,14.50
2021,03,05,16,00,19.30
2021,03,05,16,01,11.30
2021,03,05,16,02,17.70
2021,03,05,16,03,20.90
2021,03,05,16,04,19.30
2021,03,05,16,05,16.10
2021,03,05,16,06,17.70
2021,03,05,16,07,16.10
2021,03,05,16,08,20.90
2021,03,05,16,09,17.70
2021,03,05,16,10,12.90
2021,03,05,16,11,11.30
2021,03,05,16,12,14.50
2021,03,05,16,13,17.70
2021,03,05,16,14,17.70
2021,03,05,16,15,17.70
2021,03,05,16,16,16.10
2021,03,05,16,17,24.20
2021,03,05,16,18,19.30
2021,03,05,16,19,22.50
2021,03,05,16,20,29.00
2021,03,05,16,21,19.30
2021,03,05,16,22,22.50
2021,03,05,16,23,17.70
2021,03,05,16,24,19.30
2021,03,05,16,25,20.90
2021,03,05,16,26,17.70
2021,03,05,16,27,20.90
2021,03,05,16,28,19.30
2021,03,05,16,29,43.50
2021,03,05,16,30,35.40
2021,03,05,16,31,40.20
2021,03,05,16,32,40.20
2021,03,05,16,33,22.50
2021,03,05,16,34,19.30
2021,03,05,16,35,32.20
2021,03,05,16,36,40.20
2021,03,05,16,37,48.30
2021,03,05,16,38,46.70
2021,03,05,16,39,40.20
2021,03,05,16,40,29.00
2021,03,05,16,41,17.70
2021,03,05,16,42,17.70
2021,03,05,16,43,41.80
2021,03,05,16,44,38.60
2021,03,05,16,45,32.20
2021,03,05,16,46,20.90
2021,03,05,16,47,19.30
2021,03,05,16,48,32.20
2021,03,05,16,49,20.90
2021,03,05,16,50,20.90
2021,03,05,16,51,19.30
2021,03,05,16,52,16.10
2021,03,05,16,53,17.70
2021,03,05,16,54,19.30
2021,03,05,16,55,32.20
2021,03,05,16,56,29.00
2021,03,05,16,57,29.00
2021,03,05,16,58,9.60
2021,03,05,16,59,20.90
2021,03,05,17,00,9.60
2021,03,05,17,01,22.50
2021,03,05,17,02,22.50
2021,03,05,17,03,29.00
2021,03,05,17,04,25.70
2021,03,05,17,05,17.70
2021,03,05,17,06,12.90
2021,03,05,17,07,6.40
2021,03,05,17,08,11.30
2021,03,05,17,09,17.70
2021,03,05,17,10,20.90
2021,03,05,17,11,17.70
2021,03,05,17,12,49.90
2021,03,05,17,13,56.30
2021,03,05,17,14,45.10
2021,03,05,17,15,29.00
2021,03,05,17,16,40.20
2021,03,05,17,17,35.40
2021,03,05,17,18,32.20
2021,03,05,17,19,24.20
2021,03,05,17,20,30.60
2021,03,05,17,21,30.60
2021,03,05,17,22,37.00
2021,03,05,17,23,29.00
2021,03,05,17,24,29.00
2021,03,05,17,25,19.30
2021,03,05,17,26,33.80
2021,03,05,17,27,33.80
2021,03,05,17,28,11.30
2021,03,05,17,29,19.30
2021,03,05,17,30,11.30
2021,03,05,17,31,11.30
2021,03,05,17,32,16.10
2021,03,05,17,33,14.50
2021,03,05,17,34,9.60
2021,03,05,17,35,9.60
2021,03,05,17,36,11.30
2021,03,05,17,37,12.90
2021,03,05,17,38,8.10
2021,03,05,17,39,8.10
2021,03,05,17,40,9.60
2021,03,05,17,41,8.10
2021,03,05,17,42,6.40
2021,03,05,17,43,8.10
2021,03,05,17,44,4.80
2021,03,05,17,45,4.80
2021,03,05,17,46,6.40
2021,03,05,17,47,4.80
2021,03,05,17,48,6.40
2021,03,05,17,49,9.60
2021,03,05,17,50,8.10
2021,03,05,17,51,4.80
2021,03,05,17,52,6.40
2021,03,05,17,53,8.10
2021,03,05,17,54,6.40
2021,03,05,17,55,4.80
2021,03,05,17,56,6.40
2021,03,05,17,57,4.80
2021,03,05,17,58,4.80
2021,03,05,17,59,4.80
2021,03,05,18,00,8.10
2021,03,05,18,01,8.10
2021,03,05,18,02,9.60
2021,03,05,18,03,8.10
2021,03,05,18,04,9.60
2021,03,05,18,05,11.30
2021,03,05,18,06,35.40
2021,03,05,18,07,6.40
2021,03,05,18,08,6.40
2021,03,05,18,09,6.40
2021,03,05,18,10,9.60
2021,03,05,18,11,8.10
2021,03,05,18,12,11.30
2021,03,05,18,13,9.60
2021,03,05,18,14,9.60
2021,03,05,18,15,9.60
2021,03,05,18,16,8.10
2021,03,05,18,17,9.60
2021,03,05,18,18,9.60
2021,03,05,18,19,9.60
2021,03,05,18,20,11.30
2021,03,05,18,21,9.60
2021,03,05,18,22,11.30
2021,03,05,18,23,8.10
2021,03,05,18,24,11.30
2021,03,05,18,25,16.10
2021,03,05,18,26,9.60
2021,03,05,18,27,9.60
2021,03,05,18,28,9.60
2021,03,05,18,29,8.10
2021,03,05,18,30,11.30
2021,03,05,18,31,9.60
2021,03,05,18,32,6.40
2021,03,05,18,33,6.40
2021,03,05,18,34,11.30
2021,03,05,18,35,9.60
2021,03,05,18,36,9.60
2021,03,05,18,37,9.60
2021,03,05,18,38,8.10
2021,03,05,18,39,8.10
2021,03,05,18,40,6.40
2021,03,05,18,41,9.60
2021,03,05,18,42,6.40
2021,03,05,18,43,11.30
2021,03,05,18,44,9.60
2021,03,05,18,45,8.10
2021,03,05,18,46,6.40
2021,03,05,18,47,8.10
2021,03,05,18,48,11.30
2021,03,05,18,49,12.90
2021,03,05,18,50,14.50
2021,03,05,18,51,8.10
2021,03,05,18,52,8.10
2021,03,05,18,53,6.40
2021,03,05,18,54,8.10
2021,03,05,18,55,9.60
2021,03,05,18,56,6.40
2021,03,05,18,57,4.80
2021,03,05,18,58,4.80
2021,03,05,18,59,6.40
2021,03,05,19,00,4.80
2021,03,05,19,01,6.40
2021,03,05,19,02,3.20
2021,03,05,19,03,4.80
2021,03,05,19,04,4.80
2021,03,05,19,05,3.20
2021,03,05,19,06,4.80
2021,03,05,19,07,3.20
2021,03,05,19,08,4.80
2021,03,05,19,09,6.40
2021,03,05,19,10,4.80
2021,03,05,19,11,3.20
2021,03,05,19,12,1.60
2021,03,05,19,13,1.60
2021,03,05,19,14,3.20
2021,03,05,19,15,4.80
2021,03,05,19,16,4.80
2021,03,05,19,17,4.80
2021,03,05,19,18,6.40
2021,03,05,19,19,9.60
2021,03,05,19,20,6.40
2021,03,05,19,21,8.10
2021,03,05,19,22,8.10
2021,03,05,19,23,1.60
2021,03,05,19,24,6.40
2021,03,05,19,25,4.80
2021,03,05,19,26,6.40
2021,03,05,19,27,4.80
2021,03,05,19,28,8.10
2021,03,05,19,29,8.10
2021,03,05,19,30,9.60
2021,03,05,19,31,8.10
2021,03,05,19,32,3.20
2021,03,05,19,33,1.60
2021,03,05,19,34,1.60
2021,03,05,19,36,4.80
2021,03,05,19,37,3.20
2021,03,05,19,38,6.40
2021,03,05,19,39,6.40
2021,03,05,19,40,8.10
2021,03,05,19,41,8.10
2021,03,05,19,42,22.50
2021,03,05,19,43,6.40
2021,03,05,19,44,6.40
2021,03,05,19,45,6.40
2021,03,05,19,46,8.10
2021,03,05,19,47,4.80
2021,03,05,19,48,3.20
2021,03,05,19,49,3.20
2021,03,05,19,50,3.20
2021,03,05,19,51,6.40
2021,03,05,19,52,6.40
2021,03,05,19,53,4.80
2021,03,05,19,54,6.40
2021,03,05,19,55,4.80
2021,03,05,19,56,1.60
2021,03,05,19,57,3.20
2021,03,05,19,58,3.20
2021,03,05,19,59,4.80
2021,03,05,20,00,6.40
2021,03,05,20,01,6.40
2021,03,05,20,02,6.40
2021,03,05,20,03,6.40
2021,03,05,20,04,3.20
2021,03,05,20,05,6.40
2021,03,05,20,06,11.30
2021,03,05,20,07,8.10
2021,03,05,20,08,9.60
2021,03,05,20,09,4.80
2021,03,05,20,10,8.10
2021,03,05,20,11,8.10
2021,03,05,20,12,11.30
2021,03,05,20,13,3.20
2021,03,05,20,14,6.40
2021,03,05,20,15,4.80
2021,03,05,20,16,4.80
2021,03,05,20,17,4.80
2021,03,05,20,18,6.40
2021,03,05,20,19,4.80
2021,03,05,20,20,3.20
2021,03,05,20,21,4.80
2021,03,05,20,22,4.80
2021,03,05,20,23,6.40
2021,03,05,20,24,6.40
2021,03,05,20,25,4.80
2021,03,05,20,26,4.80
2021,03,05,20,27,4.80
2021,03,05,20,28,6.40
2021,03,05,20,29,9.60
2021,03,05,20,30,6.40
2021,03,05,20,31,11.30
2021,03,05,20,32,9.60
2021,03,05,20,33,8.10
2021,03,05,20,34,4.80
2021,03,05,20,35,4.80
2021,03,05,20,36,6.40
2021,03,05,20,37,6.40
2021,03,05,20,38,4.80
2021,03,05,20,39,4.80
2021,03,05,20,40,8.10
2021,03,05,20,41,6.40
2021,03,05,20,42,8.10
2021,03,05,20,43,4.80
2021,03,05,20,44,4.80
2021,03,05,20,45,6.40
2021,03,05,20,46,8.10
2021,03,05,20,47,6.40
2021,03,05,20,48,6.40
2021,03,05,20,49,6.40
2021,03,05,20,50,9.60
2021,03,05,20,51,8.10
2021,03,05,20,52,6.40
2021,03,05,20,53,8.10
2021,03,05,20,54,6.40
2021,03,05,20,55,4.80
2021,03,05,20,56,6.40
2021,03,05,20,57,8.10
2021,03,05,20,58,4.80
2021,03,05,20,59,9.60
2021,03,05,21,00,4.80
2021,03,05,21,01,3.20
2021,03,05,21,02,1.60
2021,03,05,21,03,3.20
2021,03,05,21,05,6.40
2021,03,05,21,06,6.40
2021,03,05,21,07,4.80
2021,03,05,21,08,6.40
2021,03,05,21,09,8.10
2021,03,05,21,10,4.80
2021,03,05,21,11,14.50
2021,03,05,21,12,6.40
2021,03,05,21,13,6.40
2021,03,05,21,14,27.40
2021,03,05,21,15,20.90
2021,03,05,21,16,22.50
2021,03,05,21,17,11.30
2021,03,05,21,18,4.80
2021,03,05,21,19,6.40
2021,03,05,21,20,8.10
2021,03,05,21,25,1.60
2021,03,05,21,26,8.10
2021,03,05,21,39,3.20
2021,03,05,21,40,14.50
2021,03,05,21,41,14.50
2021,03,05,21,42,4.80
2021,03,05,21,43,3.20
2021,03,05,21,44,1.60
2021,03,05,21,49,1.60
2021,03,05,21,52,1.60
2021,03,05,21,53,1.60
2021,03,05,21,54,1.60
2021,03,05,22,28,1.60
2021,03,05,22,30,27.40
2021,03,05,22,31,43.50
2021,03,05,22,32,25.70
2021,03,05,22,33,22.50
2021,03,05,22,34,3.20
2021,03,05,22,35,3.20
2021,03,05,22,38,4.80
2021,03,05,22,39,6.40
2021,03,05,22,40,6.40
2021,03,05,22,41,14.50
2021,03,05,22,42,8.10
2021,03,05,22,43,14.50
2021,03,05,22,44,4.80
2021,03,05,22,47,1.60
2021,03,05,23,04,1.60
2021,03,05,23,05,1.60
2021,03,05,23,30,4.80
2021,03,05,23,31,9.60
2021,03,05,23,32,16.10
2021,03,05,23,33,4.80
2021,03,05,23,34,6.40
2021,03,05,23,35,9.60
2021,03,05,23,36,6.40
2021,03,05,23,37,4.80
2021,03,05,23,38,4.80
2021,03,05,23,39,3.20
2021,03,05,23,40,1.60
2021,03,05,23,41,3.20
2021,03,05,23,42,3.20
2021,03,05,23,43,1.60
2021,03,05,23,47,1.60
2021,03,05,23,48,3.20
2021,03,05,23,49,4.80
2021,03,05,23,50,4.80
2021,03,05,23,51,3.20
2021,03,05,23,52,3.20
2021,03,05,23,53,3.20
2021,03,05,23,54,1.60
2021,03,05,23,55,3.20
2021,03,05,23,56,4.80
2021,03,05,23,57,6.40
2021,03,05,23,58,8.10
2021,03,05,23,59,6.40
